[[{"header":{"parameterUnit":"m.s-1","parameterCategory":1,"la1":30.2991,"la2":30.254,"lo1":-89.0895,"lo2":-89.0444,"dy":0.0017,"dx":0.0017,"nx":28,"ny":28,"refTime":"2024-09-27T21:00:00:Z","depth":0,"parameterNumber":2,"parameterNumberName":"U-component_of_WINDS"},"data":[0,0,0,0,0,0,0,0,0,0,0,0,0,0,0,0,0,0,0,0,0,0,0,0,0,0,0,0,0,0,0,0,0,0,0,0,0,0,0,0,0,0,0,0,0,0,0,0,0,0,0,0,0,0,0,0,0,0,6.7066,6.7069,0,6.7326,6.7328,6.7331,6.7277,6.7272,6.7267,6.7263,6.7531,6.7543,6.7554,0,0,0,0,0,0,0,0,0,0,0,0,0,6.6523,6.6533,6.7066,6.7069,6.7072,6.7325,6.7329,6.7332,6.7278,6.7272,6.7266,6.7261,6.7528,6.7541,6.7555,0,0,0,0,0,0,0,0,0,0,0,0,0,6.6768,6.6536,6.7065,6.7075,6.7079,6.7324,6.7329,6.7333,6.7279,6.7272,6.7265,6.7258,6.7523,6.754,6.7557,6.7809,0,0,6.7611,6.7618,0,0,0,0,0,0,0,0,6.6754,6.6788,6.7071,6.7075,6.708,6.7261,6.7236,6.7493,6.7281,6.7203,6.7263,6.7254,6.7448,6.7471,6.7535,6.7822,6.7833,6.7612,6.7623,6.763,6.7635,0,0,0,0,0,0,0,6.6737,6.6777,6.7168,6.7075,6.708,6.7067,6.7094,6.7284,6.7363,6.7209,6.7206,6.7237,6.7449,6.7519,6.7541,6.7837,6.7612,6.7627,6.7638,6.7645,6.8339,6.8346,0,0,0,0,0,0,6.6716,6.6763,6.716,6.7176,6.6896,6.7083,6.7113,6.721,6.7361,6.7376,6.7243,6.7234,6.7493,6.7521,6.7551,6.7852,6.763,6.7646,6.7656,6.8331,6.834,6.8349,0,0,0,0,0,0,6.6705,6.6752,6.715,6.6969,6.7018,6.71,6.721,6.7219,6.7289,6.7386,6.74,6.73,6.7488,6.7526,6.7744,6.786,6.7654,6.767,6.8321,6.8334,6.8345,6.8458,0,0,0,0,0,0,6.6689,6.6748,6.6845,6.6971,6.7028,6.7339,6.7217,6.723,6.7319,6.7309,6.7443,6.7459,6.7485,6.7718,6.7761,6.7881,6.7684,6.8311,6.8327,6.8341,6.8444,6.8472,6.8496,0,0,0,0,0,6.667,6.6868,6.685,6.6899,6.7151,6.7346,6.7379,6.7404,6.7329,6.7426,6.7488,6.7454,6.7841,6.7741,6.7789,6.7915,6.8304,6.8322,6.834,6.8432,6.8467,6.8496,0,0,0,0,0,0,6.6755,6.6885,6.6867,6.7111,6.7218,6.7336,6.746,6.7441,6.7572,6.7557,6.7584,6.7615,6.7836,6.7898,6.7784,6.8165,6.8062,6.809,6.8116,6.8149,6.8175,6.8154,6.7698,0,0,0,0,0,6.6802,6.695,6.7056,6.7261,6.7315,6.7379,6.7465,6.7475,6.7587,6.7632,6.771,6.782,6.7966,6.8061,6.8202,6.8454,6.848,6.8564,6.859,6.8611,6.8634,6.8768,6.8805,6.8408,6.8408,6.8407,0,0,6.6901,6.699,6.7082,6.728,6.7364,6.7515,6.7417,6.7582,6.7694,6.7658,6.7866,6.7928,6.8052,6.8287,6.8395,6.8346,6.875,6.8634,6.865,6.8662,6.879,6.8828,6.8861,6.842,6.8418,6.8416,0,0,6.7158,6.7242,6.742,6.7505,6.7632,6.7673,6.7716,6.7837,6.7875,6.8086,6.806,6.8194,6.8446,6.8534,6.8612,6.89,6.8872,6.8945,6.908,6.921,6.9241,6.9269,6.9368,6.9403,6.8968,6.8969,6.8969,0,6.7265,6.7491,6.7514,6.7681,6.7767,6.774,6.7919,6.8002,6.8169,6.8229,6.8172,6.8484,6.8567,6.8819,6.8889,6.8955,6.9003,6.8928,6.9235,6.9263,6.929,6.9384,6.9421,6.8976,6.8976,6.8975,6.8974,0,6.7614,6.7772,6.7901,6.806,6.8161,6.8334,6.8382,6.8483,6.8484,6.853,6.8743,6.8841,6.8997,6.9059,6.9064,6.9313,6.9277,6.9228,6.9124,6.9335,6.9423,6.946,6.8987,6.8985,6.8982,6.898,0,0,6.7931,6.8099,6.8146,6.8216,6.8353,6.8475,6.8646,6.8798,6.8881,6.8998,6.914,6.9352,6.9306,6.9394,6.9408,6.9523,6.9739,6.9459,6.9462,6.9504,7.0015,7.0048,7.009,6.9723,6.973,6.9736,7.0002,0,6.8197,6.8496,6.8521,6.879,6.8933,6.8908,6.9056,6.9156,6.9204,6.9332,6.9385,6.9534,6.9464,6.9516,6.9629,6.9689,6.9841,6.967,6.9853,6.9859,6.9818,7.0137,7.0174,7.0421,7.0038,7.0044,7.0048,0,6.8547,6.867,6.8953,6.9066,6.9128,6.926,6.9399,6.9524,6.9636,6.9662,6.976,6.9757,6.9931,6.9823,7.0061,6.9944,7.0021,7.0062,7.0072,7.0087,6.9964,7.0157,7.0501,7.0536,7.0104,7.01,7.0096,0,6.8744,6.8982,6.918,6.9242,6.9381,6.9474,6.9536,6.9641,6.973,6.9852,6.9909,7.0052,7.0129,7.0238,7.0273,7.0192,7.0509,7.0405,7.0534,7.0533,7.0599,7.0594,7.0957,7.0656,7.0655,7.0654,7.0653,0,6.9037,6.9209,6.927,6.9392,6.9584,6.9611,6.98,6.9858,6.9951,7.0082,7.0071,7.0195,7.0236,7.0366,7.0396,7.0586,7.0622,7.0647,7.0652,7.0646,7.0642,7.0694,7.0676,7.0664,7.0662,7.066,7.0658,0,6.9289,6.9337,6.955,6.9663,6.9696,6.9832,6.9928,7.0045,7.009,7.0256,7.0297,7.0368,7.052,7.0567,7.0752,7.0771,7.0993,7.0985,7.0954,7.0954,7.1078,7.1064,7.1484,7.1538,7.1205,7.1208,7.1211,0,6.947,6.9602,6.9728,6.9814,6.9879,7.002,7.0109,7.0141,7.0234,7.037,7.047,7.0621,7.0742,7.0988,7.1055,7.1196,7.1188,7.1326,7.1209,7.1198,7.1185,7.1175,7.1187,7.1346,7.135,7.1353,7.1355,0,6.9785,6.9801,6.993,7.0068,7.0174,7.0284,7.039,7.0462,7.0508,7.0614,7.0769,7.0863,7.105,7.1199,7.1341,7.1405,7.1387,7.1391,7.1428,7.1421,7.1396,7.1407,7.101,7.1381,7.1378,7.1376,7.1375,7.1374,7.0005,7.0119,7.0224,7.0367,7.045,7.0548,7.0661,7.072,7.0849,7.1002,7.1014,7.118,7.1286,7.1475,7.1546,7.1676,7.1636,7.1691,7.1703,7.1715,7.1723,7.1378,7.1703,7.1702,7.1702,7.1701,7.1701,0,7.0315,7.0381,7.0513,7.0659,7.0771,7.0745,7.086,7.0955,7.1101,7.1202,7.1321,7.1497,7.1641,7.1719,7.1862,7.1951,7.1946,7.1987,7.1978,7.1993,7.1753,7.1705,7.1988,7.1988,7.1988,7.1988,7.1987,7.1987,7.049,7.068,7.0709,7.0939,7.1004,7.1166,7.1233,7.1323,7.1402,7.1599,7.1717,7.1767,7.1858,7.2007,7.2136,7.2156,7.2207,7.2252,7.2266,7.204,7.201,7.1982,7.1937,7.2264,7.2264,7.2494,7.2496,7.2498]},{"header":{"parameterUnit":"m.s-1","parameterCategory":1,"la1":30.2991,"la2":30.254,"lo1":-89.0895,"lo2":-89.0444,"dy":0.0017,"dx":0.0017,"nx":28,"ny":28,"refTime":"2024-09-27T21:00:00:Z","depth":0,"parameterNumber":3,"parameterNumberName":"V-component_of_WINDS"},"data":[0,0,0,0,0,0,0,0,0,0,0,0,0,0,0,0,0,0,0,0,0,0,0,0,0,0,0,0,0,0,0,0,0,0,0,0,0,0,0,0,0,0,0,0,0,0,0,0,0,0,0,0,0,0,0,0,0,0,3.0153,3.0153,0,3.0212,3.0213,3.0213,3.0169,3.0167,3.0165,3.0163,3.0222,3.0225,3.0229,0,0,0,0,0,0,0,0,0,0,0,0,0,2.9998,3.0001,3.0153,3.0153,3.0154,3.0212,3.0213,3.0213,3.0169,3.0167,3.0165,3.0162,3.0221,3.0225,3.0229,0,0,0,0,0,0,0,0,0,0,0,0,0,3.0062,3.0002,3.0152,3.0139,3.0139,3.0212,3.0213,3.0214,3.017,3.0167,3.0164,3.0161,3.022,3.0225,3.023,3.0318,0,0,3.0245,3.0247,0,0,0,0,0,0,0,0,3.0058,3.0068,3.014,3.014,3.014,3.018,3.018,3.0249,3.0171,3.0158,3.0163,3.016,3.021,3.0216,3.0233,3.0321,3.0324,3.0245,3.0248,3.0251,3.0252,0,0,0,0,0,0,0,3.0054,3.0065,3.0176,3.0141,3.0141,3.0129,3.0135,3.0192,3.02,3.0159,3.0156,3.0163,3.021,3.0229,3.0234,3.0325,3.0245,3.025,3.0253,3.0255,3.0486,3.0489,0,0,0,0,0,0,3.0051,3.0061,3.0174,3.0178,3.0091,3.0134,3.0141,3.017,3.0199,3.02,3.0166,3.0161,3.0221,3.0229,3.0236,3.0341,3.0251,3.0255,3.0258,3.0483,3.0487,3.049,0,0,0,0,0,0,3.0048,3.0062,3.0172,3.0119,3.0132,3.014,3.0173,3.0173,3.0192,3.0204,3.0205,3.0184,3.0219,3.0229,3.0298,3.0343,3.0258,3.0262,3.0479,3.0484,3.0488,3.0553,0,0,0,0,0,0,3.0044,3.0061,3.0096,3.012,3.0135,3.0234,3.0176,3.0176,3.0201,3.0195,3.0222,3.0223,3.0218,3.0291,3.0303,3.0348,3.0266,3.0475,3.0481,3.0487,3.0546,3.0559,3.0569,0,0,0,0,0,3.0038,3.0111,3.0098,3.0112,3.0179,3.0236,3.0245,3.0238,3.0205,3.0239,3.0247,3.0222,3.0336,3.0298,3.0312,3.0359,3.0472,3.048,3.0486,3.0541,3.0556,3.0569,0,0,0,0,0,0,3.0092,3.0114,3.0099,3.0183,3.0208,3.0229,3.0272,3.0254,3.0289,3.0283,3.0272,3.0278,3.035,3.0361,3.0319,3.0445,3.0399,3.0409,3.0436,3.045,3.0461,3.0457,3.027,0,0,0,0,0,3.0113,3.0159,3.0176,3.0248,3.0261,3.0265,3.0289,3.0282,3.0307,3.0318,3.033,3.0355,3.0396,3.0424,3.0462,3.0547,3.0552,3.0586,3.0598,3.0607,3.0616,3.066,3.0676,3.0513,3.0513,3.0513,0,0,3.0158,3.0176,3.0206,3.0259,3.0277,3.0324,3.0274,3.0326,3.036,3.0325,3.0391,3.0401,3.0428,3.0505,3.054,3.0517,3.0662,3.0616,3.0623,3.0627,3.0669,3.0684,3.0698,3.0518,3.0517,3.0516,0,0,3.0264,3.0282,3.0343,3.0363,3.0392,3.0394,3.0408,3.0432,3.0437,3.0503,3.0477,3.0517,3.0588,3.0608,3.0628,3.0739,3.0717,3.0751,3.0811,3.0855,3.0868,3.0879,3.0918,3.0932,3.076,3.076,3.076,0,3.0316,3.0386,3.0377,3.043,3.0454,3.0425,3.0486,3.0505,3.0545,3.0561,3.0534,3.0622,3.0639,3.0719,3.0746,3.0763,3.0778,3.0749,3.0867,3.0878,3.0888,3.0925,3.094,3.0764,3.0764,3.0763,3.0763,0,3.0448,3.0497,3.0542,3.0582,3.061,3.0667,3.0665,3.0695,3.0684,3.0688,3.0754,3.0773,3.0814,3.0832,3.0822,3.0911,3.0896,3.0868,3.0821,3.0908,3.0942,3.0956,3.077,3.0768,3.0767,3.0766,0,0,3.059,3.0623,3.064,3.0656,3.0685,3.0722,3.0777,3.0817,3.0843,3.087,3.0915,3.0975,3.095,3.0972,3.0963,3.1002,3.1087,3.0969,3.097,3.099,3.1184,3.1205,3.1221,3.1072,3.1075,3.1077,3.1182,0,3.0696,3.0793,3.0785,3.0876,3.092,3.0892,3.0939,3.0961,3.0966,3.1003,3.1007,3.105,3.1013,3.1026,3.1063,3.1069,3.1126,3.1061,3.1113,3.1115,3.1107,3.1239,3.1261,3.1359,3.1195,3.1197,3.1199,0,3.0834,3.0867,3.0962,3.0982,3.1001,3.1044,3.1079,3.1115,3.1139,3.1139,3.1163,3.1148,3.1202,3.1153,3.1226,3.1182,3.1202,3.1209,3.1212,3.1217,3.1163,3.1247,3.139,3.1405,3.122,3.1219,3.1217,0,3.0927,3.0995,3.106,3.1075,3.1102,3.1132,3.1144,3.1165,3.1189,3.122,3.1235,3.1272,3.1292,3.1319,3.1314,3.1279,3.1388,3.1339,3.1388,3.1389,3.1413,3.1412,3.1561,3.1427,3.1426,3.1426,3.1426,0,3.1047,3.1106,3.1102,3.1142,3.1207,3.1197,3.1261,3.1269,3.1288,3.1328,3.1305,3.1343,3.1334,3.1371,3.1367,3.1427,3.1436,3.1437,3.1435,3.1439,3.1439,3.1452,3.1445,3.143,3.1429,3.1428,3.1428,0,3.1162,3.1162,3.1231,3.125,3.1256,3.1303,3.1318,3.1355,3.1357,3.1408,3.142,3.1423,3.1465,3.1462,3.151,3.1507,3.1581,3.1571,3.1574,3.1571,3.1621,3.1616,3.1785,3.1806,3.1658,3.1659,3.166,0,3.1239,3.1283,3.1307,3.1332,3.1346,3.1388,3.1412,3.1404,3.143,3.1459,3.1492,3.1533,3.1565,3.1633,3.1639,3.1675,3.1666,3.1722,3.1671,3.1673,3.1666,3.1663,3.1667,3.1732,3.1734,3.1735,3.1737,0,3.1374,3.1371,3.1408,3.1444,3.1474,3.1502,3.1528,3.1549,3.1543,3.1573,3.1617,3.1641,3.169,3.173,3.1763,3.1774,3.1754,3.1752,3.1766,3.177,3.1769,3.177,3.1601,3.1749,3.1748,3.1747,3.1746,3.1746,3.1472,3.151,3.1532,3.1573,3.1591,3.1615,3.165,3.1656,3.1693,3.1732,3.1724,3.1772,3.1793,3.1836,3.185,3.1887,3.1867,3.1886,3.1891,3.1896,3.1901,3.1764,3.1893,3.1893,3.1892,3.1892,3.1892,0,3.1605,3.1618,3.1655,3.1692,3.1724,3.1702,3.1728,3.1756,3.1799,3.1821,3.1852,3.1901,3.1939,3.1947,3.1984,3.2011,3.2003,3.2021,3.2019,3.2021,3.1918,3.1903,3.2027,3.2027,3.2027,3.2027,3.2027,3.2027,3.1678,3.1741,3.1741,3.1811,3.1823,3.1871,3.1887,3.1909,3.1925,3.1981,3.2013,3.2018,3.2034,3.2071,3.2104,3.2105,3.2119,3.2141,3.2139,3.2042,3.2029,3.2016,3.2001,3.2144,3.2145,3.2239,3.224,3.224]}]]